STARLINK-2242 (48587 NORAD) Tracking and Keplerian Element Data

This shows tracking and keplerian element data for the satellite.

Feedback or suggestion? Click here.




ElementValue
Catalog48587
NameSTARLINK-2242
Epoch Orbit358
Epoch Day214.91667824
Epoch Year2021
RAAN122.4037
Inclination53.0533
Eccentricity0.0001627
Argument of Perigee75.8297
Mean Anonmoly323.1673
Mean Motion15.06419026
Decay Rate-0.00033124
L11 48587U 21041AL 21214.91667824 -.00033124 00000-0 -22140-2 0 9999
L22 48587 53.0533 122.4037 0001627 75.8297 323.1673 15.06419026 3581

Live tracking and technical data element details for STARLINK-2242 (NORAD 48587). STARLINK-2242 can be tracked NOW for your location showing map with azimuth and elevation plus other details from your city location.

Track the satellite on the map from your city or location and see movement details for azimuth, elevation, latitude, longitude, range, height, and movement on the map or in text.







IsCatalogInMostPopularTable: catalog: 48587, numindb: 17
Update: records affected: 1



GetName: 48587 STARLINK-2242

Hit Count: updated at: Wed, 04 Aug 2021 00:10:36 GMT